DW9234 Weather Reports


Display with metric or nautical units.
time (UTC)temp
F
wind
direction
speed
MPH
gust
MPH
rain 1hr
in
rain 24hr
in
rain mn
in
humidity
%
barometer
mb
20260902211005 75 179 0.0 2.0 0.00 0.00 0.63 90 1019.1
20260902210005 75 180 0.0 0.0 0.00 0.00 0.63 90 1019.2
20260902205004 75 180 0.0 0.0 0.00 0.00 0.63 90 1019.4
20260902204004 75 180 0.0 0.0 0.00 0.00 0.63 90 1019.8
20260902202004 75 179 0.0 1.0 0.00 0.00 0.63 90 1019.2
20260902201005 75 180 1.0 2.0 0.00 0.00 0.63 90 1018.8
20260902200005 75 94 0.0 1.0 0.00 0.00 0.63 90 1019.1
20260902195004 74 93 0.0 1.0 0.00 0.00 0.63 90 1018.9
20260902194004 74 93 0.0 1.0 0.00 0.00 0.63 90 1019.1
20260902193005 74 92 0.0 1.0 0.00 0.00 0.63 90 1019.2
20260902192004 74 92 0.0 1.0 0.00 0.00 0.63 90 1019.1
20260902185005 73 92 0.0 2.0 0.00 0.00 0.63 90 1019.0
20260902184005 73 91 1.0 2.0 0.00 0.00 0.63 89 1018.8
20260902183004 73 90 1.0 5.0 0.00 0.00 0.62 89 1018.8
20260902182004 73 108 0.0 4.0 0.00 0.00 0.61 89 1019.8
20260902181004 74 64 0.0 2.0 0.00 0.00 0.59 89 1020.2
20260902180006 74 123 0.0 2.0 0.00 0.00 0.56 89 1021.0
20260902175005 74 96 4.0 7.0 0.00 0.00 0.54 89 1021.6
20260902174005 75 207 0.0 2.0 0.00 0.00 0.09 90 1022.5
20260902173005 75 113 0.0 0.0 0.00 0.00 0.03 90 1021.1
20260902172004 75 113 0.0 0.0 0.00 0.00 0.03 90 1020.9
20260902171004 75 113 0.0 0.0 0.00 0.00 0.03 90 1021.1
20260902170005 75 113 0.0 0.0 0.00 0.00 0.03 90 1021.2
20260902164005 74 113 0.0 0.0 0.00 0.00 0.03 90 1020.9
20260902163004 74 76 0.0 0.0 0.00 0.00 0.03 90 1020.5
20260902162005 74 149 0.0 0.0 0.00 0.00 0.03 90 1020.4
20260902161003 74 150 0.0 0.0 0.00 0.00 0.03 90 1020.7
20260902160005 74 168 0.0 0.0 0.00 0.00 0.03 90 1020.4
20260902155005 74 155 0.0 0.0 0.00 0.00 0.03 90 1020.6
20260902153004 73 158 0.0 0.0 0.00 0.00 0.03 90 1020.6
20260902152004 73 159 0.0 0.0 0.00 0.00 0.03 90 1020.7
20260902151005 73 159 0.0 0.0 0.00 0.00 0.03 90 1020.9
20260902150005 73 158 0.0 0.0 0.00 0.00 0.03 90 1020.9
20260902145004 73 158 0.0 0.0 0.00 0.00 0.03 90 1021.3
20260902144004 73 161 0.0 1.0 0.00 0.00 0.03 90 1021.2
20260902143005 73 161 0.0 1.0 0.00 0.00 0.03 90 1021.1
20260902142004 73 119 1.0 2.0 0.00 0.00 0.03 90 1021.0
20260902140005 73 120 0.0 1.0 0.00 0.00 0.03 90 1020.6
20260902135004 73 84 0.0 4.0 0.00 0.00 0.03 90 1020.6
20260902133005 73 133 0.0 2.0 0.00 0.00 0.03 90 1020.3
20260902132005 73 152 0.0 2.0 0.00 0.00 0.03 90 1020.2
20260902131004 73 210 0.0 2.0 0.00 0.00 0.03 90 1020.2
20260902125004 72 153 0.0 1.0 0.00 0.00 0.03 89 1020.4
20260902123004 72 154 0.0 2.0 0.00 0.00 0.03 89 1020.2
20260902122004 72 155 0.0 2.0 0.00 0.00 0.03 89 1020.1
20260902121005 72 179 0.0 0.0 0.00 0.00 0.03 89 1019.9
20260902115004 72 180 0.0 0.0 0.00 0.00 0.03 89 1019.9
20260902113005 72 175 0.0 0.0 0.00 0.00 0.03 89 1019.8
20260902111005 72 197 0.0 0.0 0.00 0.00 0.03 89 1019.6
20260902110007 72 196 0.0 0.0 0.00 0.00 0.03 89 1019.5
20260902104004 72 196 0.0 0.0 0.00 0.00 0.03 88 1019.5
20260902102004 72 196 0.0 0.0 0.00 0.00 0.03 88 1019.3
20260902101005 72 196 0.0 0.0 0.00 0.00 0.03 88 1019.3
20260902100004 72 196 0.0 0.0 0.00 0.00 0.03 88 1019.4
20260902095005 72 196 0.0 0.0 0.00 0.00 0.03 88 1019.3
20260902094005 72 196 0.0 0.0 0.00 0.00 0.03 88 1019.3
20260902093005 72 195 0.0 0.0 0.00 0.00 0.03 88 1019.2
20260902091005 72 195 0.0 0.0 0.00 0.00 0.03 88 1018.9
20260902090005 72 195 0.0 0.0 0.00 0.00 0.03 88 1018.7
20260902085004 72 194 0.0 0.0 0.00 0.00 0.03 88 1018.8
20260902084004 72 194 0.0 0.0 0.00 0.00 0.03 88 1018.6
20260902083005 72 194 0.0 0.0 0.00 0.00 0.03 87 1018.7
20260902082005 72 194 0.0 0.0 0.00 0.00 0.03 87 1018.7
20260902075004 72 194 0.0 0.0 0.00 0.00 0.03 87 1018.4
20260902074005 72 193 0.0 0.0 0.00 0.00 0.03 87 1018.4
20260902073004 72 193 0.0 0.0 0.00 0.00 0.03 87 1018.5
20260902072005 72 192 0.0 0.0 0.00 0.00 0.03 87 1018.3
20260902071004 72 192 0.0 0.0 0.00 0.00 0.03 87 1018.3
20260902070006 72 192 0.0 0.0 0.00 0.00 0.03 87 1018.1
20260902065005 72 192 0.0 0.0 0.00 0.00 0.03 87 1017.9
20260902064004 72 192 0.0 0.0 0.00 0.00 0.03 86 1017.9
20260902063005 72 192 0.0 0.0 0.00 0.00 0.03 86 1017.8
20260902062004 72 192 0.0 0.0 0.00 0.00 0.03 86 1017.7
20260902061004 72 191 0.0 0.0 0.00 0.00 0.03 86 1017.6
20260902054004 72 190 0.0 0.0 0.00 0.00 0.02 86 1017.7
20260902053004 72 190 0.0 0.0 0.00 0.00 0.02 85 1017.7
20260902052004 72 190 0.0 0.0 0.00 0.00 0.02 85 1017.7
20260902051005 72 190 0.0 0.0 0.00 0.00 0.02 85 1017.9
20260902050008 72 193 0.0 0.0 0.00 0.00 0.02 85 1018.3
20260902044004 72 192 0.0 0.0 0.00 0.00 0.02 84 1018.4
20260902043004 72 191 0.0 0.0 0.00 0.00 0.01 83 1018.5
20260902042005 72 190 0.0 0.0 0.00 0.00 0.00 83 1018.5
20260902041004 72 191 0.0 0.0 0.00 0.00 0.00 82 1018.7
20260902040005 72 191 0.0 0.0 0.00 0.00 0.67 82 1018.3
20260902034004 72 192 0.0 0.0 0.00 0.00 0.67 81 1017.8
20260902033005 73 202 0.0 0.0 0.00 0.00 0.67 81 1017.5
20260902031004 73 163 0.0 0.0 0.00 0.00 0.67 80 1017.4
20260902025004 73 252 0.0 0.0 0.00 0.00 0.67 80 1017.0
20260902024005 74 253 0.0 1.0 0.00 0.00 0.67 80 1017.1
20260902023005 74 252 0.0 0.0 0.00 0.00 0.67 79 1016.8
20260902022005 73 252 0.0 0.0 0.00 0.00 0.67 79 1016.1
20260902020004 73 252 0.0 0.0 0.00 0.00 0.67 78 1016.0
20260902015005 73 254 0.0 0.0 0.00 0.00 0.67 77 1015.6
20260902014005 73 246 0.0 2.0 0.00 0.00 0.67 76 1015.9
20260902013004 73 200 0.0 6.0 0.00 0.00 0.66 75 1016.3
20260902012005 73 243 4.0 9.0 0.00 0.00 0.66 73 1016.3
20260902011004 75 196 2.0 14.0 0.00 0.00 0.65 70 1017.4
20260902005004 79 236 0.0 8.0 0.00 0.00 0.06 68 1016.4
20260902004005 81 40 8.0 8.0 0.00 0.00 0.00 64 1015.8
20260902003004 82 53 0.0 5.0 0.00 0.00 0.00 72 1016.1
20260902002005 82 50 0.0 0.0 0.00 0.00 0.00 72 1014.5
20260902001004 83 50 0.0 0.0 0.00 0.00 0.00 72 1014.6
20260902000004 83 50 0.0 0.0 0.00 0.00 0.00 71 1014.4
20260901234004 83 40 0.0 0.0 0.00 0.00 0.00 70 1013.4
20260901232004 84 40 0.0 0.0 0.00 0.00 0.00 69 1014.4
20260901231004 84 40 0.0 0.0 0.00 0.00 0.00 69 1014.4
20260901230004 85 40 0.0 0.0 0.00 0.00 0.00 68 1014.5
20260901225006 85 40 0.0 0.0 0.00 0.00 0.00 68 1014.4
20260901224004 86 40 0.0 0.0 0.00 0.00 0.00 67 1014.7
20260901223005 87 40 0.0 0.0 0.00 0.00 0.00 66 1014.4
20260901221005 89 40 0.0 0.0 0.00 0.00 0.00 63 1014.4
20260901214004 90 5 0.0 0.0 0.00 0.00 0.00 59 1014.7
20260901213005 91 122 0.0 0.0 0.00 0.00 0.00 59 1014.5